Location: Newark
(1.4692°S, 78.8175°W)
Time: 13:25:56
(UTC+00:00)

Tiangong 2 - Visible Passes

Search period start: 18 March 2019 00:00
Search period end: 28 March 2019 00:00
Orbit: 379 x 390 km, 42.8° (Epoch: 18 March)

Date Brightness Start Highest point End Pass type
(mag) Time Alt. Az. Time Alt. Az. Time Alt. Az.
23 Mar 3.3 00:07:07 10° SSE 00:08:27 12° SE 00:08:36 12° SE visible
24 Mar 1.4 00:42:30 10° SW 00:45:09 60° WSW 00:45:09 60° WSW visible
24 Mar 2.0 23:43:21 10° SSW 23:46:10 30° SE 23:48:59 10° ENE visible
26 Mar 3.1 00:20:36 10° WSW 00:23:17 26° NW 00:25:58 10° NNE visible
27 Mar 2.7 10:51:38 10° NNW 10:54:34 35° NE 10:57:32 10° ESE visible
